[Date Prev][Date Next][Thread Prev][Thread Next] - [Date Index][Thread Index][Author Index]

2 Line ISS Keps 5-4



ISS
1 25544U 98067A   05124.13701469  .00012878  00000-0  10189-3 0  3906
2 25544 051.6442 126.4639 0008041 079.1132 038.7659 15.71724800368753
----
Via the sarex mailing list at AMSAT.ORG courtesy of AMSAT-NA.
To unsubscribe, send "unsubscribe sarex" to Majordomo@amsat.org



AMSAT Top AMSAT Home